Location: Campillo
(40.8621°N, 4.2488°W)
Time: 10:52:42
(UTC+00:00)

USA 290 - Pass Details

Date: 28 September 2021
Orbit: 397 x 413 km, 73.6° (Epoch: 06 October)

Event Time Altitude Azimuth Distance (km) Brightness Sun altitude
Exits shadow 04:31:08 63° 329° (NNW) 469 2.3 -19.5°
Drops below altitude 10° 04:34:06 10° 15° (NNE) 1,494 5.4 -18.9°
Sets 04:36:10 0° 18° (NNE) 2,361 6.5 -18.5°
